Regional Weather Roundup
Issued by NWS

Home | Current Version | Previous Version | Text Only | Print | Product List | Glossary Off
Versions: 1 2 3 4 5 6 7 8 9 10 11 12 13 14 15 16 17 18 19 20 21 22 23 24 25 26 27 28 29 30 31 32 33 34 35 36 37 38 39 40 41 42 43 44 45 46 47 48 49 50

000
ASUS45 KBOI 021710
RWRID
WEATHER ROUNDUP FOR IDAHO
NATIONAL WEATHER SERVICE BOISE ID
1100 AM MDT TUE SEP 02 2014

NOTE: "FAIR" INDICATES FEW OR NO CLOUDS BELOW 12000 FEET
WITH NO SIGNIFICANT WEATHER AND/OR OBSTRUCTIONS TO VISIBILITY

IDZ012-014-021800-
SOUTHWEST IDAHO


CITY           SKY/WX    TMP DP  RH WIND       PRES   REMARKS
BOISE          SUNNY     74  34  23 SE8       29.95F
CALDWELL       SUNNY     68  37  32 SE6       29.96F
MOUNTAIN HOME  SUNNY     68  40  35 SE10      29.96F
$$

IDZ016-017-021800-
SOUTHCENTRAL IDAHO


CITY           SKY/WX    TMP DP  RH WIND       PRES   REMARKS
BURLEY         SUNNY     65  45  48 CALM      30.02F
JEROME         SUNNY     68  43  40 N3        30.02F
TWIN FALLS     SUNNY     68  45  43 NE7       30.02S
$$

IDZ019>023-021800-
SOUTHEAST IDAHO


CITY           SKY/WX    TMP DP  RH WIND       PRES   REMARKS
IDAHO FALLS    SUNNY     68  37  32 S9        30.05F
POCATELLO      SUNNY     69  38  32 CALM      30.05F
REXBURG        SUNNY     64  40  41 S9        30.06F
$$

IDZ006-010-011-018-031-032-021800-
CENTRAL IDAHO MOUNTAINS


CITY           SKY/WX    TMP DP  RH WIND       PRES   REMARKS
MCCALL         SUNNY     57  39  51 SW6       30.01F
HAILEY         SUNNY     61  28  29 NW5       30.08F
STANLEY          N/A     53  31  42 VRB3      30.11F
SALMON         SUNNY     57  43  58 W3        29.98F
CHALLIS        SUNNY     60  34  37 S6        30.02F
$$

IDZ002-004-006-007-026-021800-
NORTHERN IDAHO


CITY           SKY/WX    TMP DP  RH WIND       PRES   REMARKS
LEWISTON       SUNNY     66  45  46 N5        29.85F
LOWELL           N/A     60  46  59 N3        29.91F
COEUR D`ALENE  MOSUNNY   66  45  45 SW8       29.84F
MULLAN PASS    PTSUNNY   50  40  68 VRB5      29.95F
$$


USA.gov is the U.S. government's official web portal to all federal, state and local government web resources and services.